Location: ???????
(55.4362°N, 38.1183°E)
Time: 16:49:06
(UTC+00:00)

Cosmos 2219 Rocket - Pass Details

Date: 24 October 2021
Orbit: 826 x 848 km, 71.0° (Epoch: 04 December)

Event Time Altitude Azimuth Distance (km) Brightness Sun altitude
Exits shadow 23:38:38 22° 8° (N) 1,760 4.2 -38.1°
Maximum altitude 23:39:48 24° 26° (NNE) 1,698 4.2 -38.0°
Drops below altitude 10° 23:44:18 10° 79° (E) 2,468 5.2 -37.5°
Sets 23:47:15 0° 94° (E) 3,404 5.9 -37.2°
